Year,Month,Day,Hour,Minute,Value (Times are PST for temperature in C)
2020,11,05,00,00,15.40
2020,11,05,00,01,15.40
2020,11,05,00,02,15.40
2020,11,05,00,03,15.30
2020,11,05,00,04,15.30
2020,11,05,00,05,15.30
2020,11,05,00,06,15.20
2020,11,05,00,07,15.20
2020,11,05,00,08,15.20
2020,11,05,00,09,15.20
2020,11,05,00,10,15.10
2020,11,05,00,11,15.10
2020,11,05,00,12,15.10
2020,11,05,00,13,15.00
2020,11,05,00,14,15.00
2020,11,05,00,15,15.00
2020,11,05,00,16,15.00
2020,11,05,00,17,15.00
2020,11,05,00,18,14.90
2020,11,05,00,19,14.90
2020,11,05,00,20,14.90
2020,11,05,00,21,14.80
2020,11,05,00,22,14.80
2020,11,05,00,23,14.80
2020,11,05,00,24,14.80
2020,11,05,00,25,14.80
2020,11,05,00,26,14.90
2020,11,05,00,27,15.00
2020,11,05,00,28,15.00
2020,11,05,00,29,15.00
2020,11,05,00,30,15.00
2020,11,05,00,31,15.00
2020,11,05,00,32,15.00
2020,11,05,00,33,15.00
2020,11,05,00,34,15.00
2020,11,05,00,35,15.00
2020,11,05,00,36,15.00
2020,11,05,00,37,15.00
2020,11,05,00,38,15.00
2020,11,05,00,39,15.00
2020,11,05,00,40,15.00
2020,11,05,00,41,15.00
2020,11,05,00,42,15.00
2020,11,05,00,43,15.00
2020,11,05,00,44,14.90
2020,11,05,00,45,14.90
2020,11,05,00,46,14.90
2020,11,05,00,47,14.90
2020,11,05,00,48,14.90
2020,11,05,00,49,14.90
2020,11,05,00,50,14.80
2020,11,05,00,51,14.80
2020,11,05,00,52,14.70
2020,11,05,00,53,14.80
2020,11,05,00,54,14.70
2020,11,05,00,55,14.70
2020,11,05,00,56,14.70
2020,11,05,00,57,14.70
2020,11,05,00,58,14.70
2020,11,05,00,59,14.70
2020,11,05,01,00,14.80
2020,11,05,01,01,14.80
2020,11,05,01,02,14.80
2020,11,05,01,03,14.80
2020,11,05,01,04,14.70
2020,11,05,01,05,14.70
2020,11,05,01,06,14.70
2020,11,05,01,07,14.60
2020,11,05,01,08,14.60
2020,11,05,01,09,14.50
2020,11,05,01,10,14.50
2020,11,05,01,11,14.40
2020,11,05,01,12,14.40
2020,11,05,01,13,14.30
2020,11,05,01,14,14.30
2020,11,05,01,15,14.30
2020,11,05,01,16,14.30
2020,11,05,01,17,14.30
2020,11,05,01,18,14.30
2020,11,05,01,19,14.20
2020,11,05,01,20,14.20
2020,11,05,01,21,14.20
2020,11,05,01,22,14.20
2020,11,05,01,23,14.20
2020,11,05,01,24,14.20
2020,11,05,01,25,14.20
2020,11,05,01,26,14.20
2020,11,05,01,27,14.20
2020,11,05,01,28,14.20
2020,11,05,01,29,14.20
2020,11,05,01,30,14.20
2020,11,05,01,31,14.20
2020,11,05,01,32,14.20
2020,11,05,01,33,14.20
2020,11,05,01,34,14.10
2020,11,05,01,35,14.00
2020,11,05,01,36,13.90
2020,11,05,01,37,13.70
2020,11,05,01,38,13.50
2020,11,05,01,39,13.30
2020,11,05,01,40,13.20
2020,11,05,01,41,13.00
2020,11,05,01,42,12.80
2020,11,05,01,43,12.70
2020,11,05,01,44,12.60
2020,11,05,01,45,12.50
2020,11,05,01,46,12.30
2020,11,05,01,47,12.20
2020,11,05,01,48,12.10
2020,11,05,01,49,12.10
2020,11,05,01,50,12.00
2020,11,05,01,51,11.90
2020,11,05,01,52,11.90
2020,11,05,01,53,11.90
2020,11,05,01,54,11.80
2020,11,05,01,55,11.80
2020,11,05,01,56,11.80
2020,11,05,01,57,11.80
2020,11,05,01,58,11.80
2020,11,05,01,59,11.80
2020,11,05,02,00,11.80
2020,11,05,02,01,11.80
2020,11,05,02,02,11.80
2020,11,05,02,03,11.70
2020,11,05,02,04,11.70
2020,11,05,02,05,11.70
2020,11,05,02,06,11.80
2020,11,05,02,07,11.80
2020,11,05,02,08,11.70
2020,11,05,02,09,11.70
2020,11,05,02,10,11.70
2020,11,05,02,11,11.70
2020,11,05,02,12,11.70
2020,11,05,02,13,11.70
2020,11,05,02,14,11.70
2020,11,05,02,15,11.70
2020,11,05,02,16,11.70
2020,11,05,02,17,11.70
2020,11,05,02,18,11.70
2020,11,05,02,19,11.80
2020,11,05,02,20,11.80
2020,11,05,02,21,11.90
2020,11,05,02,22,12.00
2020,11,05,02,23,12.20
2020,11,05,02,24,12.30
2020,11,05,02,25,12.40
2020,11,05,02,26,12.50
2020,11,05,02,27,12.50
2020,11,05,02,28,12.60
2020,11,05,02,29,12.70
2020,11,05,02,30,12.80
2020,11,05,02,31,12.90
2020,11,05,02,32,12.90
2020,11,05,02,33,12.90
2020,11,05,02,34,12.90
2020,11,05,02,35,13.00
2020,11,05,02,36,13.00
2020,11,05,02,37,12.90
2020,11,05,02,38,12.90
2020,11,05,02,39,12.90
2020,11,05,02,40,12.90
2020,11,05,02,41,12.90
2020,11,05,02,42,12.90
2020,11,05,02,43,12.80
2020,11,05,02,44,12.80
2020,11,05,02,45,12.80
2020,11,05,02,46,12.70
2020,11,05,02,47,12.60
2020,11,05,02,48,12.60
2020,11,05,02,49,12.60
2020,11,05,02,50,12.50
2020,11,05,02,51,12.40
2020,11,05,02,52,12.40
2020,11,05,02,53,12.30
2020,11,05,02,54,12.30
2020,11,05,02,55,12.30
2020,11,05,02,56,12.20
2020,11,05,02,57,12.20
2020,11,05,02,58,12.10
2020,11,05,02,59,12.10
2020,11,05,03,00,12.10
2020,11,05,03,01,12.00
2020,11,05,03,02,12.00
2020,11,05,03,03,12.00
2020,11,05,03,04,11.90
2020,11,05,03,05,11.90
2020,11,05,03,06,11.90
2020,11,05,03,07,11.90
2020,11,05,03,08,11.80
2020,11,05,03,09,11.80
2020,11,05,03,10,11.80
2020,11,05,03,11,11.80
2020,11,05,03,12,11.80
2020,11,05,03,13,11.80
2020,11,05,03,14,11.70
2020,11,05,03,15,11.70
2020,11,05,03,16,11.60
2020,11,05,03,17,11.50
2020,11,05,03,18,11.40
2020,11,05,03,19,11.30
2020,11,05,03,20,11.30
2020,11,05,03,21,11.20
2020,11,05,03,22,11.10
2020,11,05,03,23,11.00
2020,11,05,03,24,10.90
2020,11,05,03,25,10.90
2020,11,05,03,26,10.80
2020,11,05,03,27,10.80
2020,11,05,03,28,10.80
2020,11,05,03,29,10.70
2020,11,05,03,30,10.70
2020,11,05,03,31,10.70
2020,11,05,03,32,10.70
2020,11,05,03,33,10.60
2020,11,05,03,34,10.60
2020,11,05,03,35,10.60
2020,11,05,03,36,10.60
2020,11,05,03,37,10.60
2020,11,05,03,38,10.60
2020,11,05,03,39,10.70
2020,11,05,03,40,10.70
2020,11,05,03,41,10.70
2020,11,05,03,42,10.70
2020,11,05,03,43,10.70
2020,11,05,03,44,10.70
2020,11,05,03,45,10.60
2020,11,05,03,46,10.60
2020,11,05,03,47,10.60
2020,11,05,03,48,10.60
2020,11,05,03,49,10.60
2020,11,05,03,50,10.60
2020,11,05,03,51,10.60
2020,11,05,03,52,10.50
2020,11,05,03,53,10.50
2020,11,05,03,54,10.50
2020,11,05,03,55,10.60
2020,11,05,03,56,10.50
2020,11,05,03,57,10.50
2020,11,05,03,58,10.50
2020,11,05,03,59,10.50
2020,11,05,04,00,10.50
2020,11,05,04,01,10.50
2020,11,05,04,02,10.50
2020,11,05,04,03,10.60
2020,11,05,04,04,10.60
2020,11,05,04,05,10.70
2020,11,05,04,06,10.70
2020,11,05,04,07,10.70
2020,11,05,04,08,10.80
2020,11,05,04,09,10.80
2020,11,05,04,10,10.90
2020,11,05,04,11,10.90
2020,11,05,04,12,11.00
2020,11,05,04,13,11.10
2020,11,05,04,14,11.10
2020,11,05,04,15,11.10
2020,11,05,04,16,11.10
2020,11,05,04,17,11.10
2020,11,05,04,18,11.00
2020,11,05,04,19,11.00
2020,11,05,04,20,11.00
2020,11,05,04,21,10.90
2020,11,05,04,22,10.90
2020,11,05,04,23,10.90
2020,11,05,04,24,10.90
2020,11,05,04,25,10.80
2020,11,05,04,26,10.80
2020,11,05,04,27,10.80
2020,11,05,04,28,10.80
2020,11,05,04,29,10.80
2020,11,05,04,30,10.80
2020,11,05,04,31,10.80
2020,11,05,04,32,10.80
2020,11,05,04,33,10.80
2020,11,05,04,34,10.80
2020,11,05,04,35,10.70
2020,11,05,04,36,10.70
2020,11,05,04,37,10.70
2020,11,05,04,38,10.60
2020,11,05,04,39,10.60
2020,11,05,04,40,10.60
2020,11,05,04,41,10.60
2020,11,05,04,42,10.60
2020,11,05,04,43,10.60
2020,11,05,04,44,10.60
2020,11,05,04,45,10.60
2020,11,05,04,46,10.60
2020,11,05,04,47,10.60
2020,11,05,04,48,10.60
2020,11,05,04,49,10.60
2020,11,05,04,50,10.60
2020,11,05,04,51,10.60
2020,11,05,04,52,10.60
2020,11,05,04,53,10.60
2020,11,05,04,54,10.60
2020,11,05,04,55,10.70
2020,11,05,04,56,10.70
2020,11,05,04,57,10.70
2020,11,05,04,58,10.60
2020,11,05,04,59,10.60
2020,11,05,05,00,10.60
2020,11,05,05,01,10.60
2020,11,05,05,02,10.60
2020,11,05,05,03,10.60
2020,11,05,05,04,10.50
2020,11,05,05,05,10.50
2020,11,05,05,06,10.40
2020,11,05,05,07,10.40
2020,11,05,05,08,10.40
2020,11,05,05,09,10.40
2020,11,05,05,10,10.40
2020,11,05,05,11,10.30
2020,11,05,05,12,10.30
2020,11,05,05,13,10.30
2020,11,05,05,14,10.40
2020,11,05,05,15,10.40
2020,11,05,05,16,10.50
2020,11,05,05,17,10.50
2020,11,05,05,18,10.60
2020,11,05,05,19,10.60
2020,11,05,05,20,10.60
2020,11,05,05,21,10.60
2020,11,05,05,22,10.60
2020,11,05,05,23,10.60
2020,11,05,05,24,10.70
2020,11,05,05,25,10.70
2020,11,05,05,26,10.70
2020,11,05,05,27,10.80
2020,11,05,05,28,10.80
2020,11,05,05,29,10.90
2020,11,05,05,30,10.90
2020,11,05,05,31,10.90
2020,11,05,05,32,11.00
2020,11,05,05,33,11.00
2020,11,05,05,34,11.00
2020,11,05,05,35,11.10
2020,11,05,05,36,11.10
2020,11,05,05,37,11.20
2020,11,05,05,38,11.20
2020,11,05,05,39,11.20
2020,11,05,05,40,11.30
2020,11,05,05,41,11.30
2020,11,05,05,42,11.30
2020,11,05,05,43,11.30
2020,11,05,05,44,11.30
2020,11,05,05,45,11.30
2020,11,05,05,46,11.40
2020,11,05,05,47,11.30
2020,11,05,05,48,11.30
2020,11,05,05,49,11.30
2020,11,05,05,50,11.20
2020,11,05,05,51,11.20
2020,11,05,05,52,11.10
2020,11,05,05,53,11.00
2020,11,05,05,54,11.00
2020,11,05,05,55,11.00
2020,11,05,05,56,11.10
2020,11,05,05,57,11.10
2020,11,05,05,58,11.10
2020,11,05,05,59,11.10
2020,11,05,06,00,11.10
2020,11,05,06,01,11.10
2020,11,05,06,02,11.10
2020,11,05,06,03,11.10
2020,11,05,06,04,11.00
2020,11,05,06,05,11.00
2020,11,05,06,06,10.90
2020,11,05,06,07,10.90
2020,11,05,06,08,10.80
2020,11,05,06,09,10.80
2020,11,05,06,10,10.80
2020,11,05,06,11,10.80
2020,11,05,06,12,10.70
2020,11,05,06,13,10.70
2020,11,05,06,14,10.70
2020,11,05,06,15,10.60
2020,11,05,06,16,10.60
2020,11,05,06,17,10.60
2020,11,05,06,18,10.60
2020,11,05,06,19,10.50
2020,11,05,06,20,10.50
2020,11,05,06,21,10.50
2020,11,05,06,22,10.40
2020,11,05,06,23,10.40
2020,11,05,06,24,10.40
2020,11,05,06,25,10.40
2020,11,05,06,26,10.30
2020,11,05,06,27,10.30
2020,11,05,06,28,10.30
2020,11,05,06,29,10.40
2020,11,05,06,30,10.40
2020,11,05,06,31,10.40
2020,11,05,06,32,10.40
2020,11,05,06,33,10.40
2020,11,05,06,34,10.40
2020,11,05,06,35,10.40
2020,11,05,06,36,10.30
2020,11,05,06,37,10.30
2020,11,05,06,38,10.30
2020,11,05,06,39,10.30
2020,11,05,06,40,10.20
2020,11,05,06,41,10.20
2020,11,05,06,42,10.20
2020,11,05,06,43,10.20
2020,11,05,06,44,10.20
2020,11,05,06,45,10.10
2020,11,05,06,46,10.10
2020,11,05,06,47,10.10
2020,11,05,06,48,10.10
2020,11,05,06,49,10.00
2020,11,05,06,50,10.00
2020,11,05,06,51,9.90
2020,11,05,06,52,9.90
2020,11,05,06,53,9.80
2020,11,05,06,54,9.80
2020,11,05,06,55,9.80
2020,11,05,06,56,9.80
2020,11,05,06,57,9.80
2020,11,05,06,58,9.80
2020,11,05,06,59,9.80
2020,11,05,07,00,9.80
2020,11,05,07,01,9.80
2020,11,05,07,02,9.80
2020,11,05,07,03,9.80
2020,11,05,07,04,9.80
2020,11,05,07,05,9.80
2020,11,05,07,06,9.70
2020,11,05,07,07,9.80
2020,11,05,07,08,9.80
2020,11,05,07,09,9.90
2020,11,05,07,10,10.00
2020,11,05,07,11,10.00
2020,11,05,07,12,9.90
2020,11,05,07,13,9.80
2020,11,05,07,14,9.80
2020,11,05,07,15,9.70
2020,11,05,07,16,9.70
2020,11,05,07,17,9.60
2020,11,05,07,18,9.60
2020,11,05,07,19,9.60
2020,11,05,07,20,9.60
2020,11,05,07,21,9.60
2020,11,05,07,22,9.60
2020,11,05,07,23,9.60
2020,11,05,07,24,9.60
2020,11,05,07,25,9.60
2020,11,05,07,26,9.50
2020,11,05,07,27,9.50
2020,11,05,07,28,9.50
2020,11,05,07,29,9.50
2020,11,05,07,30,9.50
2020,11,05,07,31,9.50
2020,11,05,07,32,9.50
2020,11,05,07,33,9.60
2020,11,05,07,34,9.60
2020,11,05,07,35,9.60
2020,11,05,07,36,9.50
2020,11,05,07,37,9.40
2020,11,05,07,38,9.40
2020,11,05,07,39,9.30
2020,11,05,07,40,9.30
2020,11,05,07,41,9.30
2020,11,05,07,42,9.30
2020,11,05,07,43,9.30
2020,11,05,07,44,9.20
2020,11,05,07,45,9.20
2020,11,05,07,46,9.20
2020,11,05,07,47,9.20
2020,11,05,07,48,9.20
2020,11,05,07,49,9.20
2020,11,05,07,50,9.20
2020,11,05,07,51,9.20
2020,11,05,07,52,9.20
2020,11,05,07,53,9.20
2020,11,05,07,54,9.20
2020,11,05,07,55,9.20
2020,11,05,07,56,9.20
2020,11,05,07,57,9.20
2020,11,05,07,58,9.20
2020,11,05,07,59,9.20
2020,11,05,08,00,9.20
2020,11,05,08,01,9.30
2020,11,05,08,02,9.30
2020,11,05,08,03,9.30
2020,11,05,08,04,9.30
2020,11,05,08,05,9.30
2020,11,05,08,06,9.30
2020,11,05,08,07,9.40
2020,11,05,08,08,9.50
2020,11,05,08,09,9.60
2020,11,05,08,10,9.70
2020,11,05,08,11,9.90
2020,11,05,08,12,10.00
2020,11,05,08,13,10.10
2020,11,05,08,14,10.20
2020,11,05,08,15,10.30
2020,11,05,08,16,10.40
2020,11,05,08,17,10.50
2020,11,05,08,18,10.60
2020,11,05,08,19,10.60
2020,11,05,08,20,10.60
2020,11,05,08,21,10.50
2020,11,05,08,22,10.50
2020,11,05,08,23,10.40
2020,11,05,08,24,10.40
2020,11,05,08,25,10.30
2020,11,05,08,26,10.30
2020,11,05,08,27,10.30
2020,11,05,08,28,10.30
2020,11,05,08,29,10.30
2020,11,05,08,30,10.30
2020,11,05,08,31,10.30
2020,11,05,08,32,10.20
2020,11,05,08,33,10.20
2020,11,05,08,34,10.20
2020,11,05,08,35,10.10
2020,11,05,08,36,10.10
2020,11,05,08,37,10.10
2020,11,05,08,38,10.10
2020,11,05,08,39,10.10
2020,11,05,08,40,10.10
2020,11,05,08,41,10.10
2020,11,05,08,42,10.10
2020,11,05,08,43,10.10
2020,11,05,08,44,10.10
2020,11,05,08,45,10.10
2020,11,05,08,46,10.00
2020,11,05,08,47,10.10
2020,11,05,08,48,10.00
2020,11,05,08,49,10.00
2020,11,05,08,50,10.00
2020,11,05,08,51,10.00
2020,11,05,08,52,10.00
2020,11,05,08,53,10.00
2020,11,05,08,54,10.00
2020,11,05,08,55,10.00
2020,11,05,08,56,10.00
2020,11,05,08,57,10.00
2020,11,05,08,58,10.10
2020,11,05,08,59,10.20
2020,11,05,09,00,10.20
2020,11,05,09,01,10.30
2020,11,05,09,02,10.30
2020,11,05,09,03,10.40
2020,11,05,09,04,10.40
2020,11,05,09,05,10.50
2020,11,05,09,06,10.60
2020,11,05,09,07,10.80
2020,11,05,09,08,11.00
2020,11,05,09,09,11.10
2020,11,05,09,10,11.10
2020,11,05,09,11,11.00
2020,11,05,09,12,11.00
2020,11,05,09,13,11.00
2020,11,05,09,14,11.00
2020,11,05,09,15,11.00
2020,11,05,09,16,11.10
2020,11,05,09,17,11.10
2020,11,05,09,18,11.20
2020,11,05,09,19,11.30
2020,11,05,09,20,11.40
2020,11,05,09,21,11.50
2020,11,05,09,22,11.60
2020,11,05,09,23,11.80
2020,11,05,09,24,11.90
2020,11,05,09,25,12.00
2020,11,05,09,26,12.10
2020,11,05,09,27,12.20
2020,11,05,09,28,12.20
2020,11,05,09,29,12.30
2020,11,05,09,30,12.30
2020,11,05,09,31,12.40
2020,11,05,09,32,12.40
2020,11,05,09,33,12.40
2020,11,05,09,34,12.50
2020,11,05,09,35,12.50
2020,11,05,09,36,12.50
2020,11,05,09,37,12.50
2020,11,05,09,38,12.50
2020,11,05,09,39,12.50
2020,11,05,09,40,12.50
2020,11,05,09,41,12.60
2020,11,05,09,42,12.60
2020,11,05,09,43,12.60
2020,11,05,09,44,12.60
2020,11,05,09,45,12.60
2020,11,05,09,46,12.60
2020,11,05,09,47,12.60
2020,11,05,09,48,12.60
2020,11,05,09,49,12.60
2020,11,05,09,50,12.50
2020,11,05,09,51,12.60
2020,11,05,09,52,12.60
2020,11,05,09,53,12.50
2020,11,05,09,54,12.50
2020,11,05,09,55,12.40
2020,11,05,09,56,12.20
2020,11,05,09,57,12.10
2020,11,05,09,58,11.90
2020,11,05,09,59,11.80
2020,11,05,10,00,11.80
2020,11,05,10,01,11.80
2020,11,05,10,02,11.70
2020,11,05,10,03,11.70
2020,11,05,10,04,11.70
2020,11,05,10,05,11.70
2020,11,05,10,06,11.80
2020,11,05,10,07,11.90
2020,11,05,10,08,11.90
2020,11,05,10,09,11.90
2020,11,05,10,10,12.00
2020,11,05,10,11,12.00
2020,11,05,10,12,12.00
2020,11,05,10,13,11.90
2020,11,05,10,14,11.80
2020,11,05,10,15,11.80
2020,11,05,10,16,11.70
2020,11,05,10,17,11.60
2020,11,05,10,18,11.50
2020,11,05,10,19,11.40
2020,11,05,10,20,11.30
2020,11,05,10,21,11.30
2020,11,05,10,22,11.30
2020,11,05,10,23,11.20
2020,11,05,10,24,11.20
2020,11,05,10,25,11.10
2020,11,05,10,26,11.10
2020,11,05,10,27,11.00
2020,11,05,10,28,11.00
2020,11,05,10,29,10.90
2020,11,05,10,30,10.90
2020,11,05,10,31,10.90
2020,11,05,10,32,10.90
2020,11,05,10,33,10.90
2020,11,05,10,34,10.90
2020,11,05,10,35,10.80
2020,11,05,10,36,10.80
2020,11,05,10,37,10.80
2020,11,05,10,38,10.80
2020,11,05,10,39,10.80
2020,11,05,10,40,10.80
2020,11,05,10,41,10.80
2020,11,05,10,42,10.80
2020,11,05,10,43,10.80
2020,11,05,10,44,10.90
2020,11,05,10,45,10.90
2020,11,05,10,46,11.00
2020,11,05,10,47,11.00
2020,11,05,10,48,11.10
2020,11,05,10,49,11.20
2020,11,05,10,50,11.20
2020,11,05,10,51,11.20
2020,11,05,10,52,11.30
2020,11,05,10,53,11.30
2020,11,05,10,54,11.30
2020,11,05,10,55,11.30
2020,11,05,10,56,11.40
2020,11,05,10,57,11.40
2020,11,05,10,58,11.40
2020,11,05,10,59,11.50
2020,11,05,11,00,11.50
2020,11,05,11,01,11.60
2020,11,05,11,02,11.60
2020,11,05,11,03,11.60
2020,11,05,11,04,11.60
2020,11,05,11,05,11.50
2020,11,05,11,06,11.50
2020,11,05,11,07,11.40
2020,11,05,11,08,11.40
2020,11,05,11,09,11.40
2020,11,05,11,10,11.40
2020,11,05,11,11,11.40
2020,11,05,11,12,11.30
2020,11,05,11,13,11.30
2020,11,05,11,14,11.20
2020,11,05,11,15,11.20
2020,11,05,11,16,11.20
2020,11,05,11,17,11.20
2020,11,05,11,18,11.20
2020,11,05,11,19,11.20
2020,11,05,11,20,11.20
2020,11,05,11,21,11.20
2020,11,05,11,22,11.20
2020,11,05,11,23,11.20
2020,11,05,11,24,11.20
2020,11,05,11,25,11.10
2020,11,05,11,26,11.10
2020,11,05,11,27,11.20
2020,11,05,11,28,11.20
2020,11,05,11,29,11.20
2020,11,05,11,30,11.20
2020,11,05,11,31,11.20
2020,11,05,11,32,11.30
2020,11,05,11,33,11.30
2020,11,05,11,34,11.30
2020,11,05,11,35,11.30
2020,11,05,11,36,11.30
2020,11,05,11,37,11.30
2020,11,05,11,38,11.30
2020,11,05,11,39,11.30
2020,11,05,11,40,11.30
2020,11,05,11,41,11.30
2020,11,05,11,42,11.40
2020,11,05,11,43,11.40
2020,11,05,11,44,11.30
2020,11,05,11,45,11.30
2020,11,05,11,46,11.30
2020,11,05,11,47,11.40
2020,11,05,11,48,11.40
2020,11,05,11,49,11.40
2020,11,05,11,50,11.40
2020,11,05,11,51,11.40
2020,11,05,11,52,11.40
2020,11,05,11,53,11.40
2020,11,05,11,54,11.40
2020,11,05,11,55,11.40
2020,11,05,11,56,11.40
2020,11,05,11,57,11.40
2020,11,05,11,58,11.50
2020,11,05,11,59,11.50
2020,11,05,12,00,11.50
2020,11,05,12,01,11.50
2020,11,05,12,02,11.60
2020,11,05,12,03,11.60
2020,11,05,12,04,11.60
2020,11,05,12,05,11.70
2020,11,05,12,06,11.80
2020,11,05,12,07,11.80
2020,11,05,12,08,11.80
2020,11,05,12,09,11.80
2020,11,05,12,10,11.80
2020,11,05,12,11,11.90
2020,11,05,12,12,12.00
2020,11,05,12,13,12.10
2020,11,05,12,14,12.30
2020,11,05,12,15,12.40
2020,11,05,12,16,12.40
2020,11,05,12,17,12.50
2020,11,05,12,18,12.60
2020,11,05,12,19,12.60
2020,11,05,12,20,12.60
2020,11,05,12,21,12.60
2020,11,05,12,22,12.70
2020,11,05,12,23,12.70
2020,11,05,12,24,12.80
2020,11,05,12,25,12.80
2020,11,05,12,26,12.80
2020,11,05,12,27,12.80
2020,11,05,12,28,12.80
2020,11,05,12,29,12.80
2020,11,05,12,30,12.80
2020,11,05,12,31,12.80
2020,11,05,12,32,12.80
2020,11,05,12,33,12.80
2020,11,05,12,34,12.70
2020,11,05,12,35,12.70
2020,11,05,12,36,12.60
2020,11,05,12,37,12.50
2020,11,05,12,38,12.50
2020,11,05,12,39,12.50
2020,11,05,12,40,12.60
2020,11,05,12,41,12.60
2020,11,05,12,42,12.70
2020,11,05,12,43,12.70
2020,11,05,12,44,12.70
2020,11,05,12,45,12.80
2020,11,05,12,46,12.80
2020,11,05,12,47,12.70
2020,11,05,12,48,12.70
2020,11,05,12,49,12.70
2020,11,05,12,50,12.60
2020,11,05,12,51,12.60
2020,11,05,12,52,12.50
2020,11,05,12,53,12.50
2020,11,05,12,54,12.40
2020,11,05,12,55,12.40
2020,11,05,12,56,12.30
2020,11,05,12,57,12.30
2020,11,05,12,58,12.40
2020,11,05,12,59,12.40
2020,11,05,13,00,12.40
2020,11,05,13,01,12.50
2020,11,05,13,02,12.50
2020,11,05,13,03,12.50
2020,11,05,13,04,12.50
2020,11,05,13,05,12.60
2020,11,05,13,06,12.60
2020,11,05,13,07,12.60
2020,11,05,13,08,12.70
2020,11,05,13,09,12.80
2020,11,05,13,10,12.90
2020,11,05,13,11,12.90
2020,11,05,13,12,12.90
2020,11,05,13,13,12.90
2020,11,05,13,14,12.90
2020,11,05,13,15,12.90
2020,11,05,13,16,12.90
2020,11,05,13,17,12.90
2020,11,05,13,18,12.90
2020,11,05,13,19,12.90
2020,11,05,13,20,12.90
2020,11,05,13,21,13.00
2020,11,05,13,22,13.00
2020,11,05,13,23,13.00
2020,11,05,13,24,13.10
2020,11,05,13,25,13.10
2020,11,05,13,26,13.20
2020,11,05,13,27,13.20
2020,11,05,13,28,13.20
2020,11,05,13,29,13.20
2020,11,05,13,30,13.20
2020,11,05,13,31,13.30
2020,11,05,13,32,13.30
2020,11,05,13,33,13.40
2020,11,05,13,34,13.40
2020,11,05,13,35,13.30
2020,11,05,13,36,13.30
2020,11,05,13,37,13.30
2020,11,05,13,38,13.30
2020,11,05,13,39,13.30
2020,11,05,13,40,13.30
2020,11,05,13,41,13.30
2020,11,05,13,42,13.30
2020,11,05,13,43,13.30
2020,11,05,13,44,13.30
2020,11,05,13,45,13.20
2020,11,05,13,46,13.10
2020,11,05,13,47,13.10
2020,11,05,13,48,13.10
2020,11,05,13,49,13.10
2020,11,05,13,50,13.20
2020,11,05,13,51,13.20
2020,11,05,13,52,13.30
2020,11,05,13,53,13.30
2020,11,05,13,54,13.30
2020,11,05,13,55,13.20
2020,11,05,13,56,13.20
2020,11,05,13,57,13.20
2020,11,05,13,58,13.20
2020,11,05,13,59,13.20
2020,11,05,14,00,13.10
2020,11,05,14,01,13.10
2020,11,05,14,02,13.10
2020,11,05,14,03,13.10
2020,11,05,14,04,13.10
2020,11,05,14,05,13.20
2020,11,05,14,06,13.20
2020,11,05,14,07,13.20
2020,11,05,14,08,13.30
2020,11,05,14,09,13.30
2020,11,05,14,10,13.40
2020,11,05,14,11,13.40
2020,11,05,14,12,13.50
2020,11,05,14,13,13.50
2020,11,05,14,14,13.50
2020,11,05,14,15,13.60
2020,11,05,14,16,13.60
2020,11,05,14,17,13.50
2020,11,05,14,18,13.50
2020,11,05,14,19,13.50
2020,11,05,14,20,13.50
2020,11,05,14,21,13.40
2020,11,05,14,22,13.40
2020,11,05,14,23,13.40
2020,11,05,14,24,13.40
2020,11,05,14,25,13.40
2020,11,05,14,26,13.40
2020,11,05,14,27,13.40
2020,11,05,14,28,13.40
2020,11,05,14,29,13.30
2020,11,05,14,30,13.40
2020,11,05,14,31,13.40
2020,11,05,14,32,13.30
2020,11,05,14,33,13.40
2020,11,05,14,34,13.40
2020,11,05,14,35,13.40
2020,11,05,14,36,13.40
2020,11,05,14,37,13.40
2020,11,05,14,38,13.40
2020,11,05,14,39,13.40
2020,11,05,14,40,13.40
2020,11,05,14,41,13.30
2020,11,05,14,42,13.30
2020,11,05,14,43,13.30
2020,11,05,14,44,13.30
2020,11,05,14,45,13.30
2020,11,05,14,46,13.30
2020,11,05,14,47,13.30
2020,11,05,14,48,13.20
2020,11,05,14,49,13.20
2020,11,05,14,50,13.20
2020,11,05,14,51,13.10
2020,11,05,14,52,13.10
2020,11,05,14,53,13.00
2020,11,05,14,54,12.90
2020,11,05,14,55,12.90
2020,11,05,14,56,12.90
2020,11,05,14,57,12.90
2020,11,05,14,58,12.90
2020,11,05,14,59,12.90
2020,11,05,15,00,12.90
2020,11,05,15,01,12.90
2020,11,05,15,02,12.90
2020,11,05,15,03,12.80
2020,11,05,15,04,12.80
2020,11,05,15,05,12.80
2020,11,05,15,06,12.70
2020,11,05,15,07,12.70
2020,11,05,15,08,12.70
2020,11,05,15,09,12.80
2020,11,05,15,10,12.80
2020,11,05,15,11,12.80
2020,11,05,15,12,12.80
2020,11,05,15,13,12.80
2020,11,05,15,14,12.80
2020,11,05,15,15,12.80
2020,11,05,15,16,12.80
2020,11,05,15,17,12.80
2020,11,05,15,18,12.80
2020,11,05,15,19,12.70
2020,11,05,15,20,12.70
2020,11,05,15,21,12.70
2020,11,05,15,22,12.60
2020,11,05,15,23,12.60
2020,11,05,15,24,12.60
2020,11,05,15,25,12.50
2020,11,05,15,26,12.50
2020,11,05,15,27,12.50
2020,11,05,15,28,12.50
2020,11,05,15,29,12.50
2020,11,05,15,30,12.40
2020,11,05,15,31,12.40
2020,11,05,15,32,12.40
2020,11,05,15,33,12.40
2020,11,05,15,34,12.30
2020,11,05,15,35,12.30
2020,11,05,15,36,12.20
2020,11,05,15,37,12.20
2020,11,05,15,38,12.10
2020,11,05,15,39,12.00
2020,11,05,15,40,11.90
2020,11,05,15,41,11.90
2020,11,05,15,42,11.90
2020,11,05,15,43,11.80
2020,11,05,15,44,11.80
2020,11,05,15,45,11.70
2020,11,05,15,46,11.70
2020,11,05,15,47,11.70
2020,11,05,15,48,11.60
2020,11,05,15,49,11.60
2020,11,05,15,50,11.60
2020,11,05,15,51,11.60
2020,11,05,15,52,11.50
2020,11,05,15,53,11.50
2020,11,05,15,54,11.50
2020,11,05,15,55,11.50
2020,11,05,15,56,11.50
2020,11,05,15,57,11.50
2020,11,05,15,58,11.40
2020,11,05,15,59,11.40
2020,11,05,16,00,11.40
2020,11,05,16,01,11.40
2020,11,05,16,02,11.30
2020,11,05,16,03,11.30
2020,11,05,16,04,11.20
2020,11,05,16,05,11.20
2020,11,05,16,06,11.10
2020,11,05,16,07,11.10
2020,11,05,16,08,11.00
2020,11,05,16,09,10.90
2020,11,05,16,10,10.80
2020,11,05,16,11,10.70
2020,11,05,16,12,10.60
2020,11,05,16,13,10.40
2020,11,05,16,14,10.40
2020,11,05,16,15,10.30
2020,11,05,16,16,10.20
2020,11,05,16,17,10.20
2020,11,05,16,18,10.10
2020,11,05,16,19,10.00
2020,11,05,16,20,10.00
2020,11,05,16,21,9.90
2020,11,05,16,22,9.80
2020,11,05,16,23,9.80
2020,11,05,16,24,9.70
2020,11,05,16,25,9.60
2020,11,05,16,26,9.50
2020,11,05,16,27,9.50
2020,11,05,16,28,9.40
2020,11,05,16,29,9.30
2020,11,05,16,30,9.30
2020,11,05,16,31,9.20
2020,11,05,16,32,9.20
2020,11,05,16,33,9.10
2020,11,05,16,34,9.00
2020,11,05,16,35,9.00
2020,11,05,16,36,8.90
2020,11,05,16,37,8.90
2020,11,05,16,38,8.80
2020,11,05,16,39,8.80
2020,11,05,16,40,8.70
2020,11,05,16,41,8.70
2020,11,05,16,42,8.70
2020,11,05,16,43,8.60
2020,11,05,16,44,8.50
2020,11,05,16,45,8.50
2020,11,05,16,46,8.50
2020,11,05,16,47,8.40
2020,11,05,16,48,8.40
2020,11,05,16,49,8.40
2020,11,05,16,50,8.40
2020,11,05,16,51,8.40
2020,11,05,16,52,8.40
2020,11,05,16,53,8.40
2020,11,05,16,54,8.30
2020,11,05,16,55,8.30
2020,11,05,16,56,8.30
2020,11,05,16,57,8.30
2020,11,05,16,58,8.20
2020,11,05,16,59,8.20
2020,11,05,17,00,8.20
2020,11,05,17,01,8.10
2020,11,05,17,02,8.10
2020,11,05,17,03,8.10
2020,11,05,17,04,8.00
2020,11,05,17,05,8.00
2020,11,05,17,06,7.90
2020,11,05,17,07,7.90
2020,11,05,17,08,7.90
2020,11,05,17,09,8.00
2020,11,05,17,10,8.00
2020,11,05,17,11,8.00
2020,11,05,17,12,8.00
2020,11,05,17,13,8.00
2020,11,05,17,14,8.00
2020,11,05,17,15,8.00
2020,11,05,17,16,7.90
2020,11,05,17,17,7.90
2020,11,05,17,18,7.90
2020,11,05,17,19,7.80
2020,11,05,17,20,7.80
2020,11,05,17,21,7.80
2020,11,05,17,22,7.80
2020,11,05,17,23,7.80
2020,11,05,17,24,7.80
2020,11,05,17,25,7.80